Time,TemperatureF,DewpointF,PressureIn,WindDirection,WindDirectionDegrees,WindSpeedMPH,WindSpeedGustMPH,Humidity,HourlyPrecipIn,Conditions,Clouds,dailyrainin,SolarRadiationWatts/m^2,SoftwareType,DateUTC
2013-02-01 00:00:00,-9.2,-15.0,30.25,NW,305,3.0,9.0,75,0.00,BKN,BKN,0.00,0.0,WeatherDisplay:10.37,2013-02-01 06:00:00,
2013-02-01 00:05:00,-9.2,-15.0,30.25,NW,307,3.0,13.0,75,0.00,BKN,BKN,0.00,0.0,WeatherDisplay:10.37,2013-02-01 06:05:00,
2013-02-01 00:10:00,-9.3,-15.1,30.26,NW,306,3.0,13.0,75,0.00,BKN,BKN,0.00,0.0,WeatherDisplay:10.37,2013-02-01 06:10:00,
2013-02-01 00:16:00,-9.2,-15.0,30.26,WNW,290,5.5,10.4,75,0.00,BKN,,0.00,0.0,WeatherDisplay:10.37,2013-02-01 06:16:00,
2013-02-01 00:21:00,-9.3,-15.1,30.26,NW,313,3.1,6.9,75,0.00,BKN,,0.00,0.0,WeatherDisplay:10.37,2013-02-01 06:21:00,
2013-02-01 00:26:00,-9.3,-14.8,30.26,WNW,298,4.2,8.1,76,0.00,BKN,,0.00,0.0,WeatherDisplay:10.37,2013-02-01 06:26:00,
2013-02-01 00:31:00,-9.5,-15.0,30.26,NW,307,4.2,8.1,76,0.00,BKN,,0.00,0.0,WeatherDisplay:10.37,2013-02-01 06:31:00,
2013-02-01 00:36:00,-9.5,-15.0,30.26,NW,317,5.3,9.2,76,0.00,BKN,,0.00,0.0,WeatherDisplay:10.37,2013-02-01 06:36:00,
2013-02-01 00:41:00,-9.6,-15.1,30.26,NW,321,3.1,5.0,76,0.00,BKN,,0.00,0.0,WeatherDisplay:10.37,2013-02-01 06:41:00,
2013-02-01 00:46:00,-9.7,-15.2,30.26,NW,313,2.6,4.0,76,0.00,BKN,,0.00,0.0,WeatherDisplay:10.37,2013-02-01 06:46:00,
2013-02-01 00:51:00,-9.8,-15.0,30.26,WNW,295,3.5,4.0,77,0.00,BKN,,0.00,0.0,WeatherDisplay:10.37,2013-02-01 06:51:00,
2013-02-01 00:56:00,-9.8,-15.0,30.26,WNW,300,1.8,5.8,77,0.00,BKN,,0.00,0.0,WeatherDisplay:10.37,2013-02-01 06:56:00,
2013-02-01 01:01:00,-9.8,-15.0,30.26,WNW,295,5.3,8.1,77,0.00,BKN,,0.00,0.0,WeatherDisplay:10.37,2013-02-01 07:01:00,
2013-02-01 01:06:00,-9.9,-15.1,30.26,NW,322,1.4,4.6,77,0.00,BKN,,0.00,0.0,WeatherDisplay:10.37,2013-02-01 07:06:00,
2013-02-01 01:11:00,-9.9,-15.1,30.26,NNW,328,3.5,7.0,77,0.00,BKN,,0.00,0.0,WeatherDisplay:10.37,2013-02-01 07:11:00,
2013-02-01 01:16:00,-10.0,-15.2,30.26,NW,322,3.1,8.1,77,0.00,BKN,,0.00,0.0,WeatherDisplay:10.37,2013-02-01 07:16:00,
2013-02-01 01:21:00,-10.1,-15.3,30.26,West,275,5.3,9.2,77,0.00,BKN,,0.00,0.0,WeatherDisplay:10.37,2013-02-01 07:21:00,
2013-02-01 01:26:00,-10.0,-15.2,30.26,WNW,296,3.3,6.0,77,0.00,BKN,,0.00,0.0,WeatherDisplay:10.37,2013-02-01 07:26:00,
2013-02-01 01:32:00,-10.2,-15.4,30.26,WNW,294,3.5,7.0,77,0.00,BKN,,0.00,0.0,WeatherDisplay:10.37,2013-02-01 07:32:00,
2013-02-01 01:37:00,-10.2,-15.4,30.25,NW,308,4.3,6.0,77,0.00,BKN,,0.00,0.0,WeatherDisplay:10.37,2013-02-01 07:37:00,
2013-02-01 01:42:00,-10.3,-15.5,30.25,NNW,329,1.9,3.5,77,0.00,BKN,,0.00,0.0,WeatherDisplay:10.37,2013-02-01 07:42:00,
2013-02-01 01:47:00,-10.3,-15.5,30.25,WNW,301,3.8,6.0,77,0.00,BKN,,0.00,0.0,WeatherDisplay:10.37,2013-02-01 07:47:00,
2013-02-01 01:52:00,-10.3,-15.5,30.25,NW,320,2.3,4.0,77,0.00,BKN,,0.00,0.0,WeatherDisplay:10.37,2013-02-01 07:52:00,
2013-02-01 01:57:00,-10.3,-15.5,30.25,NW,311,1.9,4.0,77,0.00,BKN,,0.00,0.0,WeatherDisplay:10.37,2013-02-01 07:57:00,
2013-02-01 02:02:00,-10.5,-15.7,30.25,NW,315,1.5,3.5,77,0.00,BKN,,0.00,0.0,WeatherDisplay:10.37,2013-02-01 08:02:00,
2013-02-01 02:07:00,-10.6,-15.8,30.25,NW,316,2.6,4.0,77,0.00,BKN,,0.00,0.0,WeatherDisplay:10.37,2013-02-01 08:07:00,
2013-02-01 02:12:00,-10.7,-15.9,30.25,NW,317,2.2,4.0,77,0.00,BKN,,0.00,0.0,WeatherDisplay:10.37,2013-02-01 08:12:00,
2013-02-01 02:17:00,-10.6,-15.8,30.25,NW,313,1.3,3.5,77,0.00,BKN,,0.00,0.0,WeatherDisplay:10.37,2013-02-01 08:17:00,
2013-02-01 02:22:00,-10.8,-16.0,30.25,NW,309,1.5,3.5,77,0.00,BKN,,0.00,0.0,WeatherDisplay:10.37,2013-02-01 08:22:00,
2013-02-01 02:27:00,-10.9,-16.1,30.25,NW,309,2.6,4.0,77,0.00,BKN,,0.00,0.0,WeatherDisplay:10.37,2013-02-01 08:27:00,
2013-02-01 02:32:00,-10.9,-16.1,30.26,WNW,302,4.4,6.0,77,0.00,BKN,,0.00,0.0,WeatherDisplay:10.37,2013-02-01 08:32:00,
2013-02-01 02:37:00,-10.9,-16.1,30.26,WNW,297,3.5,5.0,77,0.00,BKN,,0.00,0.0,WeatherDisplay:10.37,2013-02-01 08:37:00,
2013-02-01 02:42:00,-11.0,-16.2,30.25,WNW,297,2.6,5.0,77,0.00,BKN,,0.00,0.0,WeatherDisplay:10.37,2013-02-01 08:42:00,
2013-02-01 02:47:00,-11.1,-16.3,30.25,WNW,297,3.0,5.0,77,0.00,BKN,,0.00,0.0,WeatherDisplay:10.37,2013-02-01 08:47:00,
2013-02-01 02:52:00,-11.1,-16.3,30.25,NW,309,3.9,5.8,77,0.00,BKN,,0.00,0.0,WeatherDisplay:10.37,2013-02-01 08:52:00,
2013-02-01 02:57:00,-11.2,-16.4,30.26,NW,307,2.5,4.0,77,0.00,BKN,,0.00,0.0,WeatherDisplay:10.37,2013-02-01 08:57:00,
2013-02-01 03:02:00,-11.2,-16.1,30.26,NW,307,1.8,3.5,78,0.00,BKN,,0.00,0.0,WeatherDisplay:10.37,2013-02-01 09:02:00,
2013-02-01 03:07:00,-11.3,-16.2,30.26,WNW,298,2.4,4.0,78,0.00,BKN,,0.00,0.0,WeatherDisplay:10.37,2013-02-01 09:07:00,
2013-02-01 03:12:00,-11.6,-16.8,30.26,WNW,297,3.0,4.0,77,0.00,BKN,,0.00,0.0,WeatherDisplay:10.37,2013-02-01 09:12:00,
2013-02-01 03:17:00,-11.8,-16.7,30.26,WNW,294,1.3,3.5,78,0.00,BKN,,0.00,0.0,WeatherDisplay:10.37,2013-02-01 09:17:00,
2013-02-01 03:22:00,-12.0,-16.9,30.27,WNW,285,1.4,3.5,78,0.00,BKN,,0.00,0.0,WeatherDisplay:10.37,2013-02-01 09:22:00,
2013-02-01 03:27:00,-12.0,-16.9,30.26,WNW,286,1.6,4.0,78,0.00,BKN,,0.00,0.0,WeatherDisplay:10.37,2013-02-01 09:27:00,
2013-02-01 03:32:00,-12.2,-17.1,30.26,WNW,285,2.1,5.0,78,0.00,BKN,,0.00,0.0,WeatherDisplay:10.37,2013-02-01 09:32:00,
2013-02-01 03:37:00,-12.2,-17.1,30.27,WNW,293,3.6,7.0,78,0.00,BKN,,0.00,0.0,WeatherDisplay:10.37,2013-02-01 09:37:00,
2013-02-01 03:42:00,-12.3,-17.2,30.27,WNW,294,3.0,4.0,78,0.00,BKN,,0.00,0.0,WeatherDisplay:10.37,2013-02-01 09:42:00,
2013-02-01 03:47:00,-12.3,-17.2,30.26,WNW,292,2.1,4.0,78,0.00,BKN,,0.00,0.0,WeatherDisplay:10.37,2013-02-01 09:47:00,
2013-02-01 03:52:00,-12.4,-17.1,30.27,WNW,290,2.9,5.0,79,0.00,BKN,,0.00,0.0,WeatherDisplay:10.37,2013-02-01 09:52:00,
2013-02-01 03:57:00,-12.5,-17.2,30.27,WNW,290,0.9,3.5,79,0.00,BKN,,0.00,0.0,WeatherDisplay:10.37,2013-02-01 09:57:00,
2013-02-01 04:02:00,-12.7,-17.6,30.26,WNW,290,0.5,3.5,78,0.00,BKN,,0.00,0.0,WeatherDisplay:10.37,2013-02-01 10:02:00,
2013-02-01 04:07:00,-12.8,-17.5,30.26,WNW,291,1.6,4.0,79,0.00,BKN,,0.00,0.0,WeatherDisplay:10.37,2013-02-01 10:07:00,
2013-02-01 04:12:00,-12.9,-17.6,30.26,WNW,291,0.9,2.3,79,0.00,BKN,,0.00,0.0,WeatherDisplay:10.37,2013-02-01 10:12:00,
2013-02-01 04:17:00,-12.9,-17.6,30.27,WNW,286,1.3,3.5,79,0.00,BKN,,0.00,0.0,WeatherDisplay:10.37,2013-02-01 10:17:00,
2013-02-01 04:22:00,-12.9,-17.6,30.27,WNW,286,2.3,3.5,79,0.00,BKN,,0.00,0.0,WeatherDisplay:10.37,2013-02-01 10:22:00,
2013-02-01 04:27:00,-13.0,-17.7,30.27,WNW,286,3.0,4.0,79,0.00,BKN,,0.00,0.0,WeatherDisplay:10.37,2013-02-01 10:27:00,
2013-02-01 04:32:00,-13.2,-17.9,30.27,WSW,253,2.7,5.0,79,0.00,BKN,,0.00,0.0,WeatherDisplay:10.37,2013-02-01 10:32:00,
2013-02-01 04:37:00,-13.3,-17.9,30.27,WNW,286,1.7,4.6,79,0.00,BKN,,0.00,0.0,WeatherDisplay:10.37,2013-02-01 10:37:00,
2013-02-01 04:42:00,-13.3,-17.9,30.27,WNW,300,3.3,5.0,79,0.00,BKN,,0.00,0.0,WeatherDisplay:10.37,2013-02-01 10:42:00,
2013-02-01 04:47:00,-13.3,-17.9,30.27,WNW,284,2.4,5.0,79,0.00,BKN,,0.00,0.0,WeatherDisplay:10.37,2013-02-01 10:47:00,
2013-02-01 04:52:00,-13.5,-18.4,30.27,WNW,289,3.2,5.0,78,0.00,BKN,,0.00,0.0,WeatherDisplay:10.37,2013-02-01 10:52:00,
2013-02-01 04:57:00,-13.4,-18.3,30.27,West,261,2.9,6.0,78,0.00,BKN,,0.00,0.0,WeatherDisplay:10.37,2013-02-01 10:57:00,
2013-02-01 05:02:00,-13.5,-18.4,30.27,West,279,2.1,3.5,78,0.00,BKN,,0.00,0.0,WeatherDisplay:10.37,2013-02-01 11:02:00,
2013-02-01 05:08:00,-13.5,-18.4,30.27,West,279,0.7,2.3,78,0.00,BKN,,0.00,0.0,WeatherDisplay:10.37,2013-02-01 11:08:00,
2013-02-01 05:13:00,-13.6,-18.5,30.27,West,279,1.0,1.1,78,0.00,BKN,,0.00,0.0,WeatherDisplay:10.37,2013-02-01 11:13:00,
2013-02-01 05:18:00,-13.7,-18.6,30.27,West,271,1.0,4.0,78,0.00,BKN,,0.00,0.0,WeatherDisplay:10.37,2013-02-01 11:18:00,
2013-02-01 05:23:00,-13.8,-18.7,30.27,WNW,290,1.0,4.0,78,0.00,BKN,,0.00,0.0,WeatherDisplay:10.37,2013-02-01 11:23:00,
2013-02-01 05:28:00,-13.8,-18.4,30.27,WNW,286,1.9,3.5,79,0.00,BKN,,0.00,0.0,WeatherDisplay:10.37,2013-02-01 11:28:00,
2013-02-01 05:33:00,-13.9,-18.5,30.26,WNW,286,1.7,3.5,79,0.00,BKN,,0.00,0.0,WeatherDisplay:10.37,2013-02-01 11:33:00,
2013-02-01 05:39:00,-13.8,-18.4,30.26,WNW,286,1.0,4.0,79,0.00,BKN,,0.00,0.0,WeatherDisplay:10.37,2013-02-01 11:39:00,
2013-02-01 05:44:00,-13.8,-18.4,30.26,WNW,284,0.8,4.0,79,0.00,BKN,,0.00,0.0,WeatherDisplay:10.37,2013-02-01 11:44:00,
2013-02-01 05:49:00,-13.8,-18.4,30.26,WNW,283,1.3,4.0,79,0.00,BKN,,0.00,0.0,WeatherDisplay:10.37,2013-02-01 11:49:00,
2013-02-01 05:54:00,-13.9,-18.5,30.27,WNW,283,2.2,5.0,79,0.00,BKN,,0.00,0.0,WeatherDisplay:10.37,2013-02-01 11:54:00,
2013-02-01 05:59:00,-13.8,-18.4,30.26,West,280,2.0,3.5,79,0.00,BKN,,0.00,0.0,WeatherDisplay:10.37,2013-02-01 11:59:00,
2013-02-01 06:04:00,-13.8,-18.4,30.26,WNW,282,3.4,4.0,79,0.00,BKN,,0.00,0.0,WeatherDisplay:10.37,2013-02-01 12:04:00,
2013-02-01 06:09:00,-13.8,-18.4,30.26,WNW,292,3.1,6.0,79,0.00,BKN,,0.00,0.0,WeatherDisplay:10.37,2013-02-01 12:09:00,
2013-02-01 06:14:00,-13.8,-18.4,30.26,WNW,292,2.4,4.0,79,0.00,BKN,,0.00,0.0,WeatherDisplay:10.37,2013-02-01 12:14:00,
2013-02-01 06:19:00,-13.7,-18.3,30.26,WNW,292,1.9,3.5,79,0.00,BKN,,0.00,0.0,WeatherDisplay:10.37,2013-02-01 12:19:00,
2013-02-01 06:24:00,-13.8,-18.4,30.26,WNW,292,2.4,4.0,79,0.00,BKN,,0.00,0.0,WeatherDisplay:10.37,2013-02-01 12:24:00,
2013-02-01 06:30:00,-13.6,-18.0,30.26,WNW,298,1.4,3.0,80,0.00,BKN,,0.00,0.0,WeatherDisplay:10.37,2013-02-01 12:30:00,
2013-02-01 06:35:00,-13.4,-17.8,30.26,NW,309,3.1,5.0,80,0.00,BKN,,0.00,0.0,WeatherDisplay:10.37,2013-02-01 12:35:00,
2013-02-01 06:40:00,-13.4,-18.0,30.26,NW,306,1.1,2.3,79,0.00,BKN,,0.00,0.0,WeatherDisplay:10.37,2013-02-01 12:40:00,
2013-02-01 06:45:00,-13.7,-18.3,30.26,NW,304,0.5,3.5,79,0.00,BKN,,0.00,0.0,WeatherDisplay:10.37,2013-02-01 12:45:00,
2013-02-01 06:50:00,-13.7,-18.3,30.26,WNW,302,2.3,3.5,79,0.00,BKN,,0.00,0.0,WeatherDisplay:10.37,2013-02-01 12:50:00,
2013-02-01 06:55:00,-13.5,-18.2,30.25,WNW,302,2.0,5.0,79,0.00,BKN,BKN,0.00,0.0,WeatherDisplay:10.37,2013-02-01 12:55:00,
2013-02-01 07:00:00,-13.5,-18.1,30.25,WNW,302,2.0,4.0,79,0.00,BKN,BKN,0.00,0.0,WeatherDisplay:10.37,2013-02-01 13:00:00,
2013-02-01 07:05:00,-13.5,-18.1,30.25,WNW,302,1.0,3.0,79,0.00,BKN,BKN,0.00,0.0,WeatherDisplay:10.37,2013-02-01 13:05:00,
2013-02-01 07:10:00,-13.6,-18.2,30.25,WNW,302,1.0,3.0,79,0.00,BKN,BKN,0.00,0.0,WeatherDisplay:10.37,2013-02-01 13:10:00,
2013-02-01 07:15:00,-13.8,-18.5,30.25,WNW,302,0.0,3.0,79,0.00,BKN,BKN,0.00,0.0,WeatherDisplay:10.37,2013-02-01 13:15:00,
2013-02-01 07:20:00,-13.9,-18.5,30.25,WNW,302,0.0,2.0,79,0.00,BKN,BKN,0.00,0.0,WeatherDisplay:10.37,2013-02-01 13:20:00,
2013-02-01 07:25:00,-14.0,-18.6,30.25,WNW,302,0.0,2.0,79,0.00,BKN,BKN,0.00,0.0,WeatherDisplay:10.37,2013-02-01 13:25:00,
2013-02-01 07:30:00,-14.0,-18.6,30.25,WNW,302,0.0,3.0,79,0.00,BKN,BKN,0.00,0.0,WeatherDisplay:10.37,2013-02-01 13:30:00,
2013-02-01 07:35:00,-14.0,-18.7,30.25,WNW,300,1.0,4.0,79,0.00,BKN,BKN,0.00,0.0,WeatherDisplay:10.37,2013-02-01 13:35:00,
2013-02-01 07:40:00,-13.9,-18.3,30.25,WNW,300,1.0,5.0,80,0.00,BKN,BKN,0.00,5.0,WeatherDisplay:10.37,2013-02-01 13:40:00,
2013-02-01 07:45:00,-13.9,-18.6,30.25,WNW,300,0.0,3.0,79,0.00,BKN,BKN,0.00,7.0,WeatherDisplay:10.37,2013-02-01 13:45:00,
2013-02-01 07:50:00,-13.9,-18.3,30.25,WNW,300,0.0,2.0,80,0.00,BKN,BKN,0.00,11.0,WeatherDisplay:10.37,2013-02-01 13:50:00,
2013-02-01 07:55:00,-14.0,-18.6,30.25,WNW,300,0.0,2.0,79,0.00,BKN,BKN,0.00,12.0,WeatherDisplay:10.37,2013-02-01 13:55:00,
2013-02-01 08:00:00,-14.0,-18.4,30.25,WNW,299,1.0,4.0,80,0.00,BKN,BKN,0.00,14.0,WeatherDisplay:10.37,2013-02-01 14:00:00,
2013-02-01 08:05:00,-13.8,-18.2,30.24,WNW,299,0.0,2.0,80,0.00,BKN,BKN,0.00,18.0,WeatherDisplay:10.37,2013-02-01 14:05:00,
2013-02-01 08:10:00,-13.7,-18.3,30.24,WNW,298,1.0,3.0,79,0.00,BKN,BKN,0.00,19.0,WeatherDisplay:10.37,2013-02-01 14:10:00,
2013-02-01 08:15:00,-13.8,-18.4,30.24,WNW,298,1.0,3.0,79,0.00,BKN,BKN,0.00,21.0,WeatherDisplay:10.37,2013-02-01 14:15:00,
2013-02-01 08:20:00,-13.6,-18.2,30.25,WNW,296,2.0,4.0,79,0.00,BKN,BKN,0.00,25.0,WeatherDisplay:10.37,2013-02-01 14:20:00,
2013-02-01 08:25:00,-13.6,-18.2,30.24,WNW,293,1.0,3.0,79,0.00,BKN,BKN,0.00,33.0,WeatherDisplay:10.37,2013-02-01 14:25:00,
2013-02-01 08:30:00,-13.4,-18.0,30.24,WNW,292,0.0,2.0,79,0.00,BKN,BKN,0.00,40.0,WeatherDisplay:10.37,2013-02-01 14:30:00,
2013-02-01 08:35:00,-13.1,-17.8,30.24,WNW,292,0.0,2.0,79,0.00,BKN,BKN,0.00,44.0,WeatherDisplay:10.37,2013-02-01 14:35:00,
2013-02-01 08:40:00,-13.0,-17.6,30.24,WNW,292,1.0,2.0,79,0.00,BKN,BKN,0.00,39.0,WeatherDisplay:10.37,2013-02-01 14:40:00,
2013-02-01 08:45:00,-12.7,-17.3,30.24,WNW,292,0.0,2.0,79,0.00,BKN,BKN,0.00,37.0,WeatherDisplay:10.37,2013-02-01 14:45:00,
2013-02-01 08:50:00,-12.3,-17.0,30.23,WNW,292,0.0,2.0,79,0.00,BKN,BKN,0.00,44.0,WeatherDisplay:10.37,2013-02-01 14:50:00,
2013-02-01 08:55:00,-12.4,-17.3,30.23,WNW,292,0.0,2.0,78,0.00,SCT,SCT,0.00,53.0,WeatherDisplay:10.37,2013-02-01 14:55:00,
2013-02-01 09:00:00,-12.2,-17.1,30.23,WNW,292,1.0,2.0,78,0.00,SCT,SCT,0.00,72.0,WeatherDisplay:10.37,2013-02-01 15:00:00,
2013-02-01 09:05:00,-11.7,-16.4,30.23,WNW,292,1.0,3.0,79,0.00,CLR,CLR,0.00,144.0,WeatherDisplay:10.37,2013-02-01 15:05:00,
2013-02-01 09:10:00,-11.1,-15.8,30.23,WNW,292,0.0,3.0,79,0.00,CLR,CLR,0.00,190.0,WeatherDisplay:10.37,2013-02-01 15:10:00,
2013-02-01 09:15:00,-10.4,-15.4,30.23,WNW,292,0.0,3.0,78,0.00,CLR,CLR,0.00,123.0,WeatherDisplay:10.37,2013-02-01 15:15:00,
2013-02-01 09:20:00,-10.3,-15.5,30.22,West,275,1.0,5.0,77,0.00,CLR,CLR,0.00,165.0,WeatherDisplay:10.37,2013-02-01 15:20:00,
2013-02-01 09:25:00,-10.2,-15.7,30.22,West,270,1.0,3.0,76,0.00,CLR,CLR,0.00,220.0,WeatherDisplay:10.37,2013-02-01 15:25:00,
2013-02-01 09:30:00,-9.8,-15.6,30.22,West,274,2.0,4.0,75,0.00,CLR,CLR,0.00,237.0,WeatherDisplay:10.37,2013-02-01 15:30:00,
2013-02-01 09:35:00,-9.1,-14.9,30.22,West,280,1.0,3.0,75,0.00,CLR,CLR,0.00,216.0,WeatherDisplay:10.37,2013-02-01 15:35:00,
2013-02-01 09:40:00,-8.4,-14.5,30.22,WNW,288,2.0,4.0,74,0.00,CLR,CLR,0.00,260.0,WeatherDisplay:10.37,2013-02-01 15:40:00,
2013-02-01 09:45:00,-8.2,-14.5,30.22,WNW,292,0.0,3.0,73,0.00,CLR,CLR,0.00,271.0,WeatherDisplay:10.37,2013-02-01 15:45:00,
2013-02-01 09:50:00,-7.7,-14.1,30.21,WNW,294,0.0,2.0,73,0.00,CLR,CLR,0.00,283.0,WeatherDisplay:10.37,2013-02-01 15:50:00,
2013-02-01 09:55:00,-7.8,-14.7,30.21,South,187,3.0,6.0,71,0.00,CLR,CLR,0.00,294.0,WeatherDisplay:10.37,2013-02-01 15:55:00,
2013-02-01 10:00:00,-7.7,-14.8,30.21,SSE,168,1.0,3.0,70,0.00,CLR,CLR,0.00,306.0,WeatherDisplay:10.37,2013-02-01 16:00:00,
2013-02-01 10:05:00,-7.1,-14.3,30.21,South,169,3.0,5.0,70,0.00,CLR,CLR,0.00,316.0,WeatherDisplay:10.37,2013-02-01 16:05:00,
2013-02-01 10:10:00,-7.0,-14.5,30.21,South,177,3.0,5.0,69,0.00,CLR,CLR,0.00,323.0,WeatherDisplay:10.37,2013-02-01 16:10:00,
2013-02-01 10:15:00,-7.0,-14.5,30.21,South,172,3.0,5.0,69,0.00,CLR,CLR,0.00,336.0,WeatherDisplay:10.37,2013-02-01 16:15:00,
2013-02-01 10:20:00,-6.4,-14.3,30.21,South,169,0.0,4.0,68,0.00,CLR,CLR,0.00,343.0,WeatherDisplay:10.37,2013-02-01 16:20:00,
2013-02-01 10:25:00,-6.0,-14.1,30.21,SSE,168,2.0,4.0,67,0.00,CLR,CLR,0.00,348.0,WeatherDisplay:10.37,2013-02-01 16:25:00,
2013-02-01 10:30:00,-5.6,-14.0,30.21,South,171,3.0,4.0,66,0.00,CLR,CLR,0.00,360.0,WeatherDisplay:10.37,2013-02-01 16:30:00,
2013-02-01 10:35:00,-5.2,-13.7,30.21,South,171,1.0,5.0,66,0.00,CLR,CLR,0.00,362.0,WeatherDisplay:10.37,2013-02-01 16:35:00,
2013-02-01 10:40:00,-4.9,-13.7,30.21,South,171,1.0,5.0,65,0.00,CLR,CLR,0.00,373.0,WeatherDisplay:10.37,2013-02-01 16:40:00,
2013-02-01 10:45:00,-4.4,-13.5,30.21,South,180,3.0,6.0,64,0.00,CLR,CLR,0.00,380.0,WeatherDisplay:10.37,2013-02-01 16:45:00,
2013-02-01 10:50:00,-4.2,-13.6,30.21,South,189,0.0,7.0,63,0.00,CLR,CLR,0.00,383.0,WeatherDisplay:10.37,2013-02-01 16:50:00,
2013-02-01 10:55:00,-4.0,-13.4,30.21,South,187,2.0,7.0,63,0.00,CLR,CLR,0.00,397.0,WeatherDisplay:10.37,2013-02-01 16:55:00,
2013-02-01 11:01:00,-3.8,-12.9,30.21,South,182,2.8,5.8,64,0.00,CLR,,0.00,406.0,WeatherDisplay:10.37,2013-02-01 17:01:00,
2013-02-01 11:06:00,-3.6,-12.7,30.22,South,172,1.4,3.5,64,0.00,CLR,,0.00,415.0,WeatherDisplay:10.37,2013-02-01 17:06:00,
2013-02-01 11:11:00,-3.2,-12.0,30.21,South,175,5.2,8.1,65,0.00,CLR,,0.00,427.0,WeatherDisplay:10.37,2013-02-01 17:11:00,
2013-02-01 11:16:00,-3.4,-12.6,30.21,SSW,210,3.2,5.8,64,0.00,CLR,,0.00,383.0,WeatherDisplay:10.37,2013-02-01 17:16:00,
2013-02-01 11:21:00,-3.3,-12.5,30.21,SSE,165,4.3,6.0,64,0.00,CLR,,0.00,364.0,WeatherDisplay:10.37,2013-02-01 17:21:00,
2013-02-01 11:26:00,-3.6,-13.1,30.20,South,190,2.5,4.0,63,0.00,CLR,,0.00,471.0,WeatherDisplay:10.37,2013-02-01 17:26:00,
2013-02-01 11:31:00,-3.3,-12.5,30.19,SSW,192,3.6,5.0,64,0.00,CLR,,0.00,292.0,WeatherDisplay:10.37,2013-02-01 17:31:00,
2013-02-01 11:36:00,-3.7,-13.2,30.19,SSE,163,3.8,6.9,63,0.00,CLR,,0.00,380.0,WeatherDisplay:10.37,2013-02-01 17:36:00,
2013-02-01 11:41:00,-3.7,-12.8,30.19,South,180,2.2,4.6,64,0.00,CLR,,0.00,353.0,WeatherDisplay:10.37,2013-02-01 17:41:00,
2013-02-01 11:46:00,-3.4,-12.6,30.19,SSW,205,2.6,4.0,64,0.00,CLR,,0.00,325.0,WeatherDisplay:10.37,2013-02-01 17:46:00,
2013-02-01 11:51:00,-3.0,-12.2,30.19,South,178,4.1,5.8,64,0.00,CLR,,0.00,336.0,WeatherDisplay:10.37,2013-02-01 17:51:00,
2013-02-01 11:56:00,-2.7,-11.9,30.18,SSW,192,3.0,5.0,64,0.00,CLR,,0.00,316.0,WeatherDisplay:10.37,2013-02-01 17:56:00,
2013-02-01 12:01:00,-2.6,-11.8,30.18,South,172,3.2,5.8,64,0.00,CLR,,0.00,309.0,WeatherDisplay:10.37,2013-02-01 18:01:00,
2013-02-01 12:06:00,-2.6,-11.8,30.18,South,190,4.6,7.0,64,0.00,CLR,,0.00,332.0,WeatherDisplay:10.37,2013-02-01 18:06:00,
2013-02-01 12:11:00,-2.8,-12.6,30.18,SSE,168,3.1,6.9,62,0.00,CLR,,0.00,359.0,WeatherDisplay:10.37,2013-02-01 18:11:00,
2013-02-01 12:16:00,-2.9,-12.4,30.17,SW,219,3.6,6.0,63,0.00,CLR,,0.00,364.0,WeatherDisplay:10.37,2013-02-01 18:16:00,
2013-02-01 12:21:00,-2.6,-11.8,30.17,South,189,5.3,7.0,64,0.00,CLR,,0.00,408.0,WeatherDisplay:10.37,2013-02-01 18:21:00,
2013-02-01 12:26:00,-2.3,-11.2,30.17,SSE,164,4.6,6.9,65,0.00,CLR,,0.00,415.0,WeatherDisplay:10.37,2013-02-01 18:26:00,
2013-02-01 12:31:00,-2.4,-11.6,30.17,South,176,5.5,11.5,64,0.00,CLR,,0.00,420.0,WeatherDisplay:10.37,2013-02-01 18:31:00,
2013-02-01 12:36:00,-2.1,-11.0,30.17,SSW,202,1.8,6.9,65,0.00,CLR,,0.00,478.0,WeatherDisplay:10.37,2013-02-01 18:36:00,
2013-02-01 12:42:00,-1.9,-11.1,30.17,SSE,168,2.6,5.0,64,0.00,CLR,,0.00,408.0,WeatherDisplay:10.37,2013-02-01 18:42:00,
2013-02-01 12:47:00,-2.1,-11.3,30.16,South,171,4.1,7.0,64,0.00,CLR,,0.00,381.0,WeatherDisplay:10.37,2013-02-01 18:47:00,
2013-02-01 12:52:00,-2.3,-11.5,30.16,South,171,5.3,7.0,64,0.00,CLR,,0.00,352.0,WeatherDisplay:10.37,2013-02-01 18:52:00,
2013-02-01 12:57:00,-2.4,-11.6,30.16,SSE,166,2.2,5.0,64,0.00,CLR,,0.00,387.0,WeatherDisplay:10.37,2013-02-01 18:57:00,
2013-02-01 13:02:00,-2.0,-10.9,30.16,SSW,205,5.0,5.8,65,0.00,CLR,,0.00,436.0,WeatherDisplay:10.37,2013-02-01 19:02:00,
2013-02-01 13:07:00,-1.5,-10.7,30.15,SSE,157,4.8,7.0,64,0.00,CLR,,0.00,441.0,WeatherDisplay:10.37,2013-02-01 19:07:00,
2013-02-01 13:12:00,-1.2,-10.8,30.15,South,183,4.3,6.9,63,0.00,CLR,,0.00,404.0,WeatherDisplay:10.37,2013-02-01 19:12:00,
2013-02-01 13:17:00,-0.9,-10.8,30.15,SSW,207,3.1,5.0,62,0.00,CLR,,0.00,330.0,WeatherDisplay:10.37,2013-02-01 19:17:00,
2013-02-01 13:22:00,-0.9,-10.5,30.15,South,172,3.5,6.9,63,0.00,CLR,,0.00,232.0,WeatherDisplay:10.37,2013-02-01 19:22:00,
2013-02-01 13:27:00,-1.2,-11.1,30.14,South,172,3.0,3.5,62,0.00,CLR,,0.00,336.0,WeatherDisplay:10.37,2013-02-01 19:27:00,
2013-02-01 13:32:00,-0.8,-10.4,30.14,SSW,192,3.8,8.1,63,0.00,CLR,,0.00,299.0,WeatherDisplay:10.37,2013-02-01 19:32:00,
2013-02-01 13:37:00,-0.8,-10.4,30.14,South,175,3.5,5.0,63,0.00,CLR,,0.00,290.0,WeatherDisplay:10.37,2013-02-01 19:37:00,
2013-02-01 13:42:00,-0.9,-9.8,30.14,SSW,208,5.6,8.1,65,0.00,CLR,,0.00,237.0,WeatherDisplay:10.37,2013-02-01 19:42:00,
2013-02-01 13:47:00,-1.0,-9.9,30.13,South,190,3.7,5.0,65,0.00,CLR,,0.00,174.0,WeatherDisplay:10.37,2013-02-01 19:47:00,
2013-02-01 13:52:00,-1.0,-9.6,30.13,SSW,197,3.4,7.0,66,0.00,CLR,,0.00,202.0,WeatherDisplay:10.37,2013-02-01 19:52:00,
2013-02-01 13:57:00,-1.2,-9.8,30.13,SSE,167,3.8,8.1,66,0.00,CLR,,0.00,214.0,WeatherDisplay:10.37,2013-02-01 19:57:00,
2013-02-01 14:02:00,-0.9,-9.2,30.13,South,180,4.8,9.0,67,0.00,CLR,,0.00,237.0,WeatherDisplay:10.37,2013-02-01 20:02:00,
2013-02-01 14:07:00,-1.1,-9.4,30.13,SSE,148,3.7,7.0,67,0.00,CLR,,0.00,239.0,WeatherDisplay:10.37,2013-02-01 20:07:00,
2013-02-01 14:12:00,-1.0,-8.7,30.13,SSW,198,4.0,5.8,69,0.00,CLR,,0.00,234.0,WeatherDisplay:10.37,2013-02-01 20:12:00,
2013-02-01 14:17:00,-0.8,-8.2,30.13,SSW,198,3.5,5.0,70,0.00,CLR,,0.00,221.0,WeatherDisplay:10.37,2013-02-01 20:17:00,
2013-02-01 14:22:00,-0.6,-7.8,30.12,South,173,1.7,5.0,71,0.00,CLR,,0.00,258.0,WeatherDisplay:10.37,2013-02-01 20:22:00,
2013-02-01 14:27:00,-0.8,-8.2,30.12,South,188,3.3,5.0,70,0.00,CLR,,0.00,207.0,WeatherDisplay:10.37,2013-02-01 20:27:00,
2013-02-01 14:32:00,-0.7,-7.9,30.11,South,177,1.8,4.0,71,0.00,CLR,,0.00,169.0,WeatherDisplay:10.37,2013-02-01 20:32:00,
2013-02-01 14:37:00,-0.7,-7.6,30.11,SSW,206,1.8,3.5,72,0.00,CLR,,0.00,148.0,WeatherDisplay:10.37,2013-02-01 20:37:00,
2013-02-01 14:42:00,-0.5,-7.4,30.11,SSE,150,2.0,4.0,72,0.00,CLR,,0.00,134.0,WeatherDisplay:10.37,2013-02-01 20:42:00,
2013-02-01 14:47:00,-0.3,-6.9,30.11,SSW,199,3.1,5.0,73,0.00,CLR,,0.00,109.0,WeatherDisplay:10.37,2013-02-01 20:47:00,
2013-02-01 14:52:00,-0.6,-6.9,30.11,SSE,160,0.3,3.5,74,0.00,CLR,,0.00,97.0,WeatherDisplay:10.37,2013-02-01 20:52:00,
2013-02-01 14:57:00,-0.7,-7.0,30.11,SSE,157,0.9,2.3,74,0.00,CLR,,0.00,100.0,WeatherDisplay:10.37,2013-02-01 20:57:00,
2013-02-01 15:02:00,-0.7,-6.7,30.11,South,173,3.0,5.0,75,0.00,CLR,,0.00,102.0,WeatherDisplay:10.37,2013-02-01 21:02:00,
2013-02-01 15:07:00,-0.7,-6.7,30.11,SSE,157,2.3,4.0,75,0.00,CLR,,0.00,120.0,WeatherDisplay:10.37,2013-02-01 21:07:00,
2013-02-01 15:12:00,-0.8,-6.5,30.11,SSW,198,1.3,3.5,76,0.00,CLR,,0.00,107.0,WeatherDisplay:10.37,2013-02-01 21:12:00,
2013-02-01 15:17:00,-0.7,-6.5,30.11,South,173,3.9,8.0,76,0.00,CLR,,0.00,97.0,WeatherDisplay:10.37,2013-02-01 21:17:00,
2013-02-01 15:22:00,-0.6,-6.4,30.11,South,185,2.9,5.0,76,0.00,CLR,,0.00,109.0,WeatherDisplay:10.37,2013-02-01 21:22:00,
2013-02-01 15:27:00,-0.7,-6.5,30.10,South,178,3.5,5.0,76,0.00,CLR,,0.00,105.0,WeatherDisplay:10.37,2013-02-01 21:27:00,
2013-02-01 15:32:00,-0.7,-6.5,30.10,SSE,158,1.4,4.0,76,0.00,CLR,,0.00,90.0,WeatherDisplay:10.37,2013-02-01 21:32:00,
2013-02-01 15:37:00,-0.7,-6.2,30.10,SSW,197,3.8,7.0,77,0.00,CLR,,0.00,79.0,WeatherDisplay:10.37,2013-02-01 21:37:00,
2013-02-01 15:42:00,-0.7,-6.2,30.10,South,173,0.1,2.3,77,0.00,CLR,,0.00,76.0,WeatherDisplay:10.37,2013-02-01 21:42:00,
2013-02-01 15:47:00,-0.6,-5.8,30.10,SSW,205,1.8,4.0,78,0.00,FEW,,0.00,72.0,WeatherDisplay:10.37,2013-02-01 21:47:00,
2013-02-01 15:52:00,-0.5,-5.7,30.09,SSE,150,1.6,3.5,78,0.00,FEW,,0.00,62.0,WeatherDisplay:10.37,2013-02-01 21:52:00,
2013-02-01 15:57:00,-0.6,-5.8,30.09,SSW,213,0.7,3.5,78,0.00,SCT,,0.00,53.0,WeatherDisplay:10.37,2013-02-01 21:57:00,
2013-02-01 16:02:00,-0.6,-5.6,30.09,SSW,213,2.6,4.0,79,0.00,SCT,,0.00,47.0,WeatherDisplay:10.37,2013-02-01 22:02:00,
2013-02-01 16:07:00,-0.7,-5.7,30.09,South,185,3.1,6.0,79,0.00,SCT,,0.00,46.0,WeatherDisplay:10.37,2013-02-01 22:07:00,
2013-02-01 16:12:00,-0.7,-5.7,30.09,South,184,1.2,2.3,79,0.00,BKN,,0.00,42.0,WeatherDisplay:10.37,2013-02-01 22:12:00,
2013-02-01 16:17:00,-0.6,-5.3,30.08,South,184,0.5,2.0,80,0.00,BKN,,0.00,37.0,WeatherDisplay:10.37,2013-02-01 22:17:00,
2013-02-01 16:22:00,-0.3,-5.0,30.08,South,184,1.8,4.0,80,0.00,BKN,,0.00,33.0,WeatherDisplay:10.37,2013-02-01 22:22:00,
2013-02-01 16:27:00,-0.5,-5.2,30.08,South,182,0.6,2.0,80,0.00,BKN,,0.00,30.0,WeatherDisplay:10.37,2013-02-01 22:27:00,
2013-02-01 16:32:00,-0.6,-5.3,30.07,South,172,0.9,3.5,80,0.00,BKN,,0.00,25.0,WeatherDisplay:10.37,2013-02-01 22:32:00,
2013-02-01 16:37:00,-0.7,-5.4,30.08,SSE,153,0.7,2.3,80,0.00,BKN,,0.00,23.0,WeatherDisplay:10.37,2013-02-01 22:37:00,
2013-02-01 16:42:00,-0.7,-5.1,30.08,SSE,160,1.8,4.0,81,0.00,BKN,,0.00,19.0,WeatherDisplay:10.37,2013-02-01 22:42:00,
2013-02-01 16:47:00,-0.6,-5.0,30.08,SSW,194,1.2,4.0,81,0.00,BKN,,0.00,14.0,WeatherDisplay:10.37,2013-02-01 22:47:00,
2013-02-01 16:52:00,-0.7,-5.1,30.07,SSW,194,1.1,3.5,81,0.00,BKN,,0.00,12.0,WeatherDisplay:10.37,2013-02-01 22:52:00,
2013-02-01 16:57:00,-0.7,-5.1,30.07,South,173,2.4,5.0,81,0.00,BKN,,0.00,11.0,WeatherDisplay:10.37,2013-02-01 22:57:00,
2013-02-01 17:02:00,-0.9,-5.3,30.08,South,173,0.8,2.3,81,0.00,BKN,,0.00,9.0,WeatherDisplay:10.37,2013-02-01 23:02:00,
2013-02-01 17:07:00,-0.9,-5.1,30.08,South,184,3.4,7.0,82,0.00,BKN,,0.00,7.0,WeatherDisplay:10.37,2013-02-01 23:07:00,
2013-02-01 17:12:00,-0.8,-4.7,30.07,South,172,1.9,4.0,83,0.00,BKN,,0.00,5.0,WeatherDisplay:10.37,2013-02-01 23:12:00,
2013-02-01 17:17:00,-0.6,-4.5,30.07,SSW,196,0.8,2.3,83,0.00,BKN,,0.00,0.0,WeatherDisplay:10.37,2013-02-01 23:17:00,
2013-02-01 17:22:00,-0.6,-4.5,30.07,South,189,1.0,1.1,83,0.00,BKN,,0.00,0.0,WeatherDisplay:10.37,2013-02-01 23:22:00,
2013-02-01 17:27:00,-0.6,-4.5,30.07,South,189,1.0,1.1,83,0.00,BKN,,0.00,0.0,WeatherDisplay:10.37,2013-02-01 23:27:00,
2013-02-01 17:32:00,-0.6,-4.5,30.07,North,8,0.1,1.1,83,0.00,BKN,,0.00,0.0,WeatherDisplay:10.37,2013-02-01 23:32:00,
2013-02-01 17:37:00,-0.6,-4.5,30.07,North,0,0.0,0.0,83,0.00,BKN,,0.00,0.0,WeatherDisplay:10.37,2013-02-01 23:37:00,
2013-02-01 17:42:00,-0.6,-4.5,30.07,North,0,0.0,0.0,83,0.00,BKN,,0.00,0.0,WeatherDisplay:10.37,2013-02-01 23:42:00,
2013-02-01 17:47:00,-0.6,-4.5,30.07,North,0,0.0,0.0,83,0.00,BKN,,0.00,0.0,WeatherDisplay:10.37,2013-02-01 23:47:00,
2013-02-01 17:52:00,-0.6,-4.5,30.07,SSW,192,0.4,2.3,83,0.00,BKN,,0.00,0.0,WeatherDisplay:10.37,2013-02-01 23:52:00,
2013-02-01 17:57:00,-0.6,-4.5,30.07,SSW,192,0.2,2.3,83,0.00,BKN,,0.00,0.0,WeatherDisplay:10.37,2013-02-01 23:57:00,
2013-02-01 18:02:00,-0.5,-4.2,30.07,SSW,192,0.0,1.1,84,0.00,BKN,,0.00,0.0,WeatherDisplay:10.37,2013-02-02 00:02:00,
2013-02-01 18:07:00,-0.5,-4.2,30.07,South,191,0.2,2.3,84,0.00,BKN,,0.00,0.0,WeatherDisplay:10.37,2013-02-02 00:07:00,
2013-02-01 18:12:00,-0.4,-4.1,30.07,South,177,0.4,2.0,84,0.00,BKN,,0.00,0.0,WeatherDisplay:10.37,2013-02-02 00:12:00,
2013-02-01 18:17:00,-0.4,-4.1,30.07,South,177,0.1,2.0,84,0.00,BKN,,0.00,0.0,WeatherDisplay:10.37,2013-02-02 00:17:00,
2013-02-01 18:22:00,-0.4,-4.1,30.06,South,178,0.1,1.1,84,0.00,BKN,,0.00,0.0,WeatherDisplay:10.37,2013-02-02 00:22:00,
2013-02-01 18:27:00,-0.2,-3.9,30.06,South,186,0.0,1.1,84,0.00,BKN,,0.00,0.0,WeatherDisplay:10.37,2013-02-02 00:27:00,
2013-02-01 18:32:00,-0.2,-3.9,30.07,South,184,0.0,1.1,84,0.00,BKN,,0.00,0.0,WeatherDisplay:10.37,2013-02-02 00:32:00,
2013-02-01 18:38:00,0.0,-3.7,30.07,South,180,0.7,2.3,84,0.00,BKN,,0.00,0.0,WeatherDisplay:10.37,2013-02-02 00:38:00,
2013-02-01 18:43:00,-0.1,-4.0,30.07,South,180,0.0,1.1,83,0.00,BKN,,0.00,0.0,WeatherDisplay:10.37,2013-02-02 00:43:00,
2013-02-01 18:48:00,-0.1,-4.0,30.07,South,180,0.5,2.0,83,0.00,BKN,,0.00,0.0,WeatherDisplay:10.37,2013-02-02 00:48:00,
2013-02-01 18:53:00,0.2,-3.5,30.08,SSE,163,0.6,2.0,84,0.00,BKN,,0.00,0.0,WeatherDisplay:10.37,2013-02-02 00:53:00,
2013-02-01 18:58:00,0.0,-3.9,30.08,SSE,160,0.3,1.1,83,0.00,BKN,,0.00,0.0,WeatherDisplay:10.37,2013-02-02 00:58:00,
2013-02-01 19:03:00,0.1,-3.8,30.08,SSE,155,0.1,1.1,83,0.00,BKN,,0.00,0.0,WeatherDisplay:10.37,2013-02-02 01:03:00,
2013-02-01 19:08:00,0.0,-3.9,30.07,SSE,150,0.5,1.1,83,0.00,BKN,,0.00,0.0,WeatherDisplay:10.37,2013-02-02 01:08:00,
2013-02-01 19:13:00,-0.1,-4.0,30.08,SSE,150,0.3,2.0,83,0.00,BKN,,0.00,0.0,WeatherDisplay:10.37,2013-02-02 01:13:00,
2013-02-01 19:18:00,0.0,-3.9,30.07,SSE,150,0.1,2.3,83,0.00,BKN,,0.00,0.0,WeatherDisplay:10.37,2013-02-02 01:18:00,
2013-02-01 19:23:00,0.1,-3.8,30.08,SSE,150,0.0,1.1,83,0.00,BKN,,0.00,0.0,WeatherDisplay:10.37,2013-02-02 01:23:00,
2013-02-01 19:28:00,0.1,-3.8,30.07,SSE,150,0.3,2.3,83,0.00,BKN,,0.00,0.0,WeatherDisplay:10.37,2013-02-02 01:28:00,
2013-02-01 19:33:00,0.2,-3.5,30.07,SSE,150,0.0,0.0,84,0.00,BKN,,0.00,0.0,WeatherDisplay:10.37,2013-02-02 01:33:00,
2013-02-01 19:38:00,0.1,-3.8,30.07,SSE,150,0.0,2.0,83,0.00,BKN,,0.00,0.0,WeatherDisplay:10.37,2013-02-02 01:38:00,
2013-02-01 19:43:00,0.2,-3.7,30.06,SSE,151,0.1,1.1,83,0.00,BKN,,0.00,0.0,WeatherDisplay:10.37,2013-02-02 01:43:00,
2013-02-01 19:48:00,0.1,-3.8,30.06,SSE,151,0.8,2.3,83,0.00,BKN,,0.00,0.0,WeatherDisplay:10.37,2013-02-02 01:48:00,
2013-02-01 19:53:00,0.2,-3.5,30.06,SSE,151,0.3,1.1,84,0.00,BKN,,0.00,0.0,WeatherDisplay:10.37,2013-02-02 01:53:00,
2013-02-01 19:58:00,0.3,-3.6,30.06,SSE,157,0.1,1.1,83,0.00,BKN,,0.00,0.0,WeatherDisplay:10.37,2013-02-02 01:58:00,
2013-02-01 20:03:00,0.2,-3.7,30.06,SSE,156,0.6,2.0,83,0.00,BKN,,0.00,0.0,WeatherDisplay:10.37,2013-02-02 02:03:00,
2013-02-01 20:08:00,0.3,-3.4,30.06,SSE,159,0.9,2.3,84,0.00,BKN,,0.00,0.0,WeatherDisplay:10.37,2013-02-02 02:08:00,
2013-02-01 20:13:00,0.2,-3.7,30.06,SSE,159,0.0,1.1,83,0.00,BKN,,0.00,0.0,WeatherDisplay:10.37,2013-02-02 02:13:00,
2013-02-01 20:18:00,0.4,-3.3,30.06,East,96,1.0,2.3,84,0.00,BKN,,0.00,0.0,WeatherDisplay:10.37,2013-02-02 02:18:00,
2013-02-01 20:23:00,0.4,-3.5,30.06,East,101,0.1,1.1,83,0.00,BKN,,0.00,0.0,WeatherDisplay:10.37,2013-02-02 02:23:00,
2013-02-01 20:28:00,0.4,-3.5,30.06,ESE,106,0.2,1.1,83,0.00,BKN,,0.00,0.0,WeatherDisplay:10.37,2013-02-02 02:28:00,
2013-02-01 20:33:00,0.5,-3.4,30.06,ESE,107,0.3,1.1,83,0.00,BKN,,0.00,0.0,WeatherDisplay:10.37,2013-02-02 02:33:00,
2013-02-01 20:38:00,0.4,-3.5,30.06,East,101,0.1,1.0,83,0.00,BKN,,0.00,0.0,WeatherDisplay:10.37,2013-02-02 02:38:00,
2013-02-01 20:43:00,0.4,-3.5,30.06,East,82,0.3,2.0,83,0.00,BKN,,0.00,0.0,WeatherDisplay:10.37,2013-02-02 02:43:00,
2013-02-01 20:48:00,0.5,-3.4,30.06,East,80,1.0,2.3,83,0.00,BKN,,0.00,0.0,WeatherDisplay:10.37,2013-02-02 02:48:00,
2013-02-01 20:53:00,0.5,-3.4,30.06,ENE,75,0.9,3.5,83,0.00,BKN,,0.00,0.0,WeatherDisplay:10.37,2013-02-02 02:53:00,
2013-02-01 20:58:00,0.4,-3.5,30.06,ENE,75,1.0,2.3,83,0.00,BKN,,0.00,0.0,WeatherDisplay:10.37,2013-02-02 02:58:00,
2013-02-01 21:03:00,0.4,-3.3,30.06,ENE,71,1.6,2.3,84,0.00,BKN,,0.00,0.0,WeatherDisplay:10.37,2013-02-02 03:03:00,
2013-02-01 21:08:00,0.4,-3.3,30.06,ENE,71,0.3,1.1,84,0.00,BKN,,0.00,0.0,WeatherDisplay:10.37,2013-02-02 03:08:00,
2013-02-01 21:13:00,0.6,-3.1,30.06,ENE,64,1.8,3.5,84,0.00,BKN,,0.00,0.0,WeatherDisplay:10.37,2013-02-02 03:13:00,
2013-02-01 21:18:00,0.4,-3.3,30.06,NE,45,2.0,3.5,84,0.00,BKN,,0.00,0.0,WeatherDisplay:10.37,2013-02-02 03:18:00,
2013-02-01 21:24:00,0.4,-3.3,30.06,NE,44,1.4,3.0,84,0.00,BKN,,0.00,0.0,WeatherDisplay:10.37,2013-02-02 03:24:00,
2013-02-01 21:29:00,0.3,-3.4,30.06,NE,43,2.0,2.3,84,0.00,BKN,,0.00,0.0,WeatherDisplay:10.37,2013-02-02 03:29:00,
2013-02-01 21:34:00,0.3,-3.4,30.06,NE,43,0.3,1.1,84,0.00,BKN,,0.00,0.0,WeatherDisplay:10.37,2013-02-02 03:34:00,
2013-02-01 21:39:00,0.3,-3.4,30.06,NE,43,0.3,1.1,84,0.00,BKN,,0.00,0.0,WeatherDisplay:10.37,2013-02-02 03:39:00,
2013-02-01 21:44:00,0.3,-3.4,30.06,NE,43,0.6,2.3,84,0.00,BKN,,0.00,0.0,WeatherDisplay:10.37,2013-02-02 03:44:00,
2013-02-01 21:49:00,0.4,-3.3,30.06,NE,42,0.3,1.1,84,0.00,BKN,,0.00,0.0,WeatherDisplay:10.37,2013-02-02 03:49:00,
2013-02-01 21:54:00,0.4,-3.3,30.06,NE,42,0.0,1.1,84,0.00,BKN,,0.00,0.0,WeatherDisplay:10.37,2013-02-02 03:54:00,
2013-02-01 21:59:00,0.3,-3.4,30.06,NE,42,0.5,2.3,84,0.00,BKN,,0.00,0.0,WeatherDisplay:10.37,2013-02-02 03:59:00,
2013-02-01 22:04:00,0.4,-3.3,30.06,NE,42,0.2,1.1,84,0.00,BKN,,0.00,0.0,WeatherDisplay:10.37,2013-02-02 04:04:00,
2013-02-01 22:09:00,0.3,-3.4,30.06,NE,42,0.6,2.3,84,0.00,BKN,,0.00,0.0,WeatherDisplay:10.37,2013-02-02 04:09:00,
2013-02-01 22:14:00,0.3,-3.4,30.06,NE,42,0.3,1.1,84,0.00,BKN,,0.00,0.0,WeatherDisplay:10.37,2013-02-02 04:14:00,
2013-02-01 22:19:00,0.2,-3.5,30.06,NE,43,0.0,1.1,84,0.00,BKN,,0.00,0.0,WeatherDisplay:10.37,2013-02-02 04:19:00,
2013-02-01 22:24:00,0.4,-3.3,30.06,NE,42,0.3,2.0,84,0.00,BKN,,0.00,0.0,WeatherDisplay:10.37,2013-02-02 04:24:00,
2013-02-01 22:29:00,0.5,-3.2,30.06,NE,42,1.1,3.0,84,0.00,BKN,,0.00,0.0,WeatherDisplay:10.37,2013-02-02 04:29:00,
2013-02-01 22:34:00,0.4,-3.3,30.06,NE,42,0.0,1.1,84,0.00,BKN,,0.00,0.0,WeatherDisplay:10.37,2013-02-02 04:34:00,
2013-02-01 22:39:00,0.4,-3.3,30.06,NE,42,0.9,2.3,84,0.00,BKN,,0.00,0.0,WeatherDisplay:10.37,2013-02-02 04:39:00,
2013-02-01 22:44:00,0.4,-3.3,30.06,NE,42,0.2,2.3,84,0.00,BKN,,0.00,0.0,WeatherDisplay:10.37,2013-02-02 04:44:00,
2013-02-01 22:49:00,0.4,-3.3,30.06,NE,42,0.0,1.1,84,0.00,BKN,,0.00,0.0,WeatherDisplay:10.37,2013-02-02 04:49:00,
2013-02-01 22:54:00,0.4,-3.3,30.06,NE,42,1.0,1.1,84,0.00,BKN,,0.00,0.0,WeatherDisplay:10.37,2013-02-02 04:54:00,
2013-02-01 22:59:00,0.4,-3.3,30.07,NE,42,0.9,2.3,84,0.00,BKN,,0.00,0.0,WeatherDisplay:10.37,2013-02-02 04:59:00,
2013-02-01 23:00:00,0.5,-3.2,30.06,NE,42,1.9,3.5,84,0.00,BKN,,0.00,0.0,WeatherDisplay:10.37,2013-02-02 05:00:00,
2013-02-01 23:05:00,0.6,-3.1,30.07,NE,42,0.0,2.0,84,0.00,BKN,BKN,0.00,0.0,WeatherDisplay:10.37,2013-02-02 05:05:00,
2013-02-01 23:07:00,0.6,-3.1,30.07,NE,42,0.9,2.3,84,0.00,BKN,,0.00,0.0,WeatherDisplay:10.37,2013-02-02 05:07:00,
2013-02-01 23:12:00,0.7,-3.0,30.07,NE,41,0.4,2.3,84,0.00,BKN,,0.00,0.0,WeatherDisplay:10.37,2013-02-02 05:12:00,
2013-02-01 23:15:00,0.8,-2.9,30.07,NE,41,0.0,2.0,84,0.00,BKN,BKN,0.00,0.0,WeatherDisplay:10.37,2013-02-02 05:15:00,
2013-02-01 23:20:00,0.8,-2.9,30.07,NE,41,1.0,2.0,84,0.00,BKN,BKN,0.00,0.0,WeatherDisplay:10.37,2013-02-02 05:20:00,
2013-02-01 23:25:00,0.9,-2.8,30.07,NE,40,1.0,2.0,84,0.00,BKN,BKN,0.00,0.0,WeatherDisplay:10.37,2013-02-02 05:25:00,
2013-02-01 23:30:00,0.9,-2.8,30.07,NE,40,1.0,3.0,84,0.00,BKN,BKN,0.00,0.0,WeatherDisplay:10.37,2013-02-02 05:30:00,
2013-02-01 23:35:00,1.0,-2.7,30.07,NE,39,1.0,3.0,84,0.00,BKN,BKN,0.00,0.0,WeatherDisplay:10.37,2013-02-02 05:35:00,
2013-02-01 23:40:00,0.9,-2.8,30.07,NE,39,2.0,3.0,84,0.00,BKN,BKN,0.00,0.0,WeatherDisplay:10.37,2013-02-02 05:40:00,
2013-02-01 23:45:00,1.1,-2.6,30.08,NE,39,1.0,2.0,84,0.00,BKN,BKN,0.00,0.0,WeatherDisplay:10.37,2013-02-02 05:45:00,
2013-02-01 23:50:00,1.0,-2.9,30.08,NE,39,0.0,2.0,83,0.00,BKN,BKN,0.00,0.0,WeatherDisplay:10.37,2013-02-02 05:50:00,
2013-02-01 23:55:00,1.1,-2.6,30.08,NE,39,1.0,3.0,84,0.00,BKN,BKN,0.00,0.0,WeatherDisplay:10.37,2013-02-02 05:55:00,